Aberdeen, United Kingdom

9:07 AM BST on July 28, 2017 (GMT +0100)
Dyce

Weather History for EGPD - December, 2012

Change the Weather History Date:

Monday, December 24, 2012

  Actual Average Record
Temperature  
Mean Temperature 42 °F -  
Max Temperature 44 °F 42 °F 55 °F (2003)
Min Temperature 39 °F 31 °F 19 °F (2010)
Degree Days  
Heating Degree Days 24    
Moisture  
Dew Point 38 °F    
Average Humidity 86    
Maximum Humidity 100    
Minimum Humidity 63    
Precipitation  
Precipitation 0.16 in 0.11 in - ()
Sea Level Pressure  
Sea Level Pressure 29.25 in    
Wind  
Wind Speed 6 mph ()    
Max Wind Speed 12 mph    
Max Gust Speed -    
Visibility 6.8 miles    
Events Rain    
Averages and records for this station are not official NWS values.
T = Trace of Precipitation, MM = Missing Value Source: Averaged Metar Reports

Daily Weather History Graph

Daily Weather History Graph

Search for Another Location

Airport or City:

Trip Planner

Search our weather history database for the weather conditions in past years. The results will help you decide how hot, cold, wet, or windy it might be!

Date:

Astronomy

Dec. 24, 2012 Rise Set
Actual Time 8:48 AM GMT 3:28 PM GMT
Civil Twilight 7:58 AM GMT 4:18 PM GMT
Nautical Twilight 7:07 AM GMT 5:10 PM GMT
Astronomical Twilight 6:20 AM GMT 5:57 PM GMT
Moon 1:05 PM GMT (12/24) 4:52 AM GMT (12/24)
Length of Visible Light 8h 20m
Length of Day
6h 40m
Waxing Gibbous, 87% of the Moon is Illuminated
Dec 24
Waxing Gibbous
Dec 28
Full
Jan 5
Last Quarter
Jan 11
New
Jan 18
First Quarter

Hourly Weather History & Observations

Time (GMT) Temp. Windchill Dew Point Humidity Pressure Visibility Wind Dir Wind Speed Gust Speed Precip Events Conditions
12:20 AM 44.6 °F 38.8 °F 35.6 °F 71% 29.30 in - WSW 11.5 mph - N/A   Clear
12:50 AM 44.6 °F 39.7 °F 35.6 °F 71% 29.33 in - WSW 9.2 mph - N/A   Clear
1:20 AM 42.8 °F 36.6 °F 35.6 °F 76% 29.33 in - WSW 11.5 mph - N/A   Clear
1:50 AM 42.8 °F 37.0 °F 35.6 °F 76% 29.33 in 6.2 mi WSW 10.4 mph - N/A   Unknown
2:20 AM 42.8 °F 37.5 °F 35.6 °F 76% 29.33 in - WSW 9.2 mph - N/A   Clear
2:50 AM 43 °F - 35 °F 63% 29.36 in 28 mi WSW 9.2 mph - -  
2:50 AM 42.8 °F 37.0 °F 35.6 °F 76% 29.36 in 6.2 mi WSW 10.4 mph - N/A   Unknown
3:20 AM 42.8 °F 37.0 °F 35.6 °F 76% 29.36 in 6.2 mi WSW 10.4 mph - N/A   Unknown
3:50 AM 42.8 °F 37.0 °F 35.6 °F 76% 29.36 in 6.2 mi WSW 10.4 mph - N/A   Unknown
4:20 AM 42.8 °F 37.5 °F 35.6 °F 76% 29.36 in - West 9.2 mph - N/A   Clear
4:50 AM 41.0 °F 35.8 °F 35.6 °F 81% 29.36 in 6.2 mi WSW 8.1 mph - N/A   Unknown
5:20 AM 39.2 °F 33.6 °F 33.8 °F 81% 29.33 in - WSW 8.1 mph - N/A   Clear
5:50 AM 42 °F - 34 °F 66% 29.34 in 28 mi WSW 8.1 mph - -  
5:50 AM 39.2 °F 34.2 °F 33.8 °F 81% 29.33 in - WSW 6.9 mph - N/A   Clear
6:20 AM 39.2 °F 35.9 °F 33.8 °F 81% 29.33 in - WSW 4.6 mph - N/A   Clear
6:50 AM 39.2 °F 35.9 °F 33.8 °F 81% 29.36 in - South 4.6 mph - N/A   Clear
7:20 AM 39.2 °F - 35.6 °F 87% 29.36 in - Variable 2.3 mph - N/A   Clear
7:50 AM 39.2 °F 35.0 °F 35.6 °F 87% 29.33 in - SW 5.8 mph - N/A   Clear
8:20 AM 41.0 °F 38.0 °F 35.6 °F 81% 29.33 in - SW 4.6 mph - N/A   Clear
8:50 AM 41 °F - 37 °F 79% 29.35 in 28 mi South 3.5 mph - -  
8:50 AM 39.2 °F - 33.8 °F 81% 29.33 in - Variable 2.3 mph - N/A   Clear
9:20 AM 39.2 °F 37.0 °F 35.6 °F 87% 29.33 in - Variable 3.5 mph - N/A   Clear
9:50 AM 41.0 °F 39.0 °F 37.4 °F 87% 29.36 in - Variable 3.5 mph - N/A   Clear
10:20 AM 41.0 °F 35.8 °F 37.4 °F 87% 29.33 in 6.2 mi SW 8.1 mph - N/A   Partly Cloudy
10:50 AM 41.0 °F 38.0 °F 39.2 °F 93% 29.33 in 6.2 mi SW 4.6 mph - N/A   Partly Cloudy
11:20 AM 42.8 °F 40.1 °F 39.2 °F 87% 29.33 in - SSW 4.6 mph - N/A   Clear
11:50 AM 44 °F - 39 °F 76% 29.31 in 18 mi SSW 5.8 mph - -   Mostly Cloudy
11:50 AM 44.6 °F 43.1 °F 39.2 °F 81% 29.30 in - Variable 3.5 mph - N/A   Clear
12:20 PM 42.8 °F 41.1 °F 39.2 °F 87% 29.27 in - Variable 3.5 mph - N/A   Clear
12:50 PM 42.8 °F 40.1 °F 39.2 °F 87% 29.27 in - South 4.6 mph - N/A   Clear
1:20 PM 41.0 °F 37.1 °F 39.2 °F 93% 29.24 in - South 5.8 mph - N/A   Clear
1:50 PM 41.0 °F 37.1 °F 39.2 °F 93% 29.24 in 6.2 mi SE 5.8 mph - N/A   Scattered Clouds
2:20 PM 42.8 °F 39.3 °F 39.2 °F 87% 29.21 in 6.2 mi SE 5.8 mph - N/A Rain Light Rain
2:50 PM 42 °F - 41 °F 95% 29.22 in 8 mi South 4.6 mph - - Rain Light Rain Showers
2:50 PM 42.8 °F 40.1 °F 39.2 °F 87% 29.21 in 6.2 mi South 4.6 mph - N/A Rain Light Rain
3:20 PM 42.8 °F 39.3 °F 41.0 °F 93% 29.21 in 5.0 mi South 5.8 mph - N/A Rain Light Rain
3:50 PM 42.8 °F 40.1 °F 41.0 °F 93% 29.18 in 5.6 mi South 4.6 mph - N/A Rain Light Rain
4:20 PM 42.8 °F 39.3 °F 41.0 °F 93% 29.18 in 5.0 mi South 5.8 mph - N/A Rain Light Rain
4:50 PM 42.8 °F 39.3 °F 41.0 °F 93% 29.18 in 5.6 mi South 5.8 mph - N/A Rain Light Rain
5:20 PM 42.8 °F 41.1 °F 41.0 °F 93% 29.18 in 5.6 mi South 3.5 mph - N/A Rain Light Rain
5:50 PM 43 °F - 42 °F 97% 29.16 in 6 mi South 4.6 mph - - Rain Rain
5:50 PM 42.8 °F 38.6 °F 41.0 °F 93% 29.15 in 5.6 mi South 6.9 mph - N/A Rain Light Rain
6:20 PM 42.8 °F 40.1 °F 41.0 °F 93% 29.15 in 6.2 mi South 4.6 mph - N/A   Scattered Clouds
6:50 PM 42.8 °F 39.3 °F 41.0 °F 93% 29.15 in 6.2 mi South 5.8 mph - N/A   Scattered Clouds
7:20 PM 41.0 °F 38.0 °F 39.2 °F 93% 29.15 in 6.2 mi South 4.6 mph - N/A   Scattered Clouds
7:50 PM 41.0 °F 39.0 °F 39.2 °F 93% 29.15 in 6.2 mi South 3.5 mph - N/A   Scattered Clouds
8:20 PM 41.0 °F 38.0 °F 39.2 °F 93% 29.12 in 6.2 mi South 4.6 mph - N/A   Partly Cloudy
8:50 PM 41 °F - 41 °F 99% 29.14 in 14 mi South 4.6 mph - -   Mostly Cloudy
8:50 PM 41.0 °F 39.0 °F 39.2 °F 93% 29.12 in 6.2 mi Variable 3.5 mph - N/A   Partly Cloudy
9:20 PM 41.0 °F 39.0 °F 39.2 °F 93% 29.12 in 6.2 mi Variable 3.5 mph - N/A   Partly Cloudy
9:50 PM 41.0 °F 39.0 °F 39.2 °F 93% 29.12 in - Variable 3.5 mph - N/A   Clear
10:20 PM 41.0 °F 39.0 °F 39.2 °F 93% 29.12 in - SW 3.5 mph - N/A   Clear
10:50 PM 39.2 °F - 39.2 °F 100% 29.12 in - ENE 2.3 mph - N/A   Clear
11:20 PM 39.2 °F - 37.4 °F 93% 29.12 in - Variable 2.3 mph - N/A   Clear
11:50 PM 41 °F - 38 °F 87% 29.13 in 25 mi SW 2.3 mph - -   Scattered Clouds
11:50 PM 39.2 °F 35.9 °F 37.4 °F 93% 29.12 in - WSW 4.6 mph - N/A   Clear